Riverside March, CA

3:56 AM PDT on July 21, 2017 (GMT -0700)
March Air Reserve Base

Weather History for KRIV - June, 2013

Change the Weather History Date:

Friday, June 28, 2013

  Actual Average Record
Temperature  
Mean Temperature 82 °F -  
Max Temperature 100 °F 87 °F 100 °F (2006)
Min Temperature 65 °F 57 °F 51 °F (2005)
Cooling Degree Days 17    
Growing Degree Days 32 (Base 50)    
Moisture  
Dew Point 59 °F    
Average Humidity 46    
Maximum Humidity 75    
Minimum Humidity 27    
Precipitation  
Precipitation 0.00 in - - ()
Sea Level Pressure  
Sea Level Pressure 29.94 in    
Wind  
Wind Speed 5 mph (NW)    
Max Wind Speed 16 mph    
Max Gust Speed 20 mph    
Visibility 10 miles    
Events      
Averages and records for this station are not official NWS values.
T = Trace of Precipitation, MM = Missing Value Source: NWS Daily Summary

Daily Weather History Graph

Daily Weather History Graph

Search for Another Location

Airport or City:

Trip Planner

Search our weather history database for the weather conditions in past years. The results will help you decide how hot, cold, wet, or windy it might be!

Date:

Astronomy

Jun. 28, 2013 Rise Set
Actual Time 5:40 AM PDT 8:04 PM PDT
Civil Twilight 5:11 AM PDT 8:33 PM PDT
Nautical Twilight 4:35 AM PDT 9:08 PM PDT
Astronomical Twilight 3:56 AM PDT 9:47 PM PDT
Moon 11:54 PM PDT (6/28) 11:35 AM PDT (6/28)
Length of Visible Light 15h 21m
Length of Day
14h 23m
Waning Gibbous, 65% of the Moon is Illuminated
Jun 28
Waning Gibbous
Jun 29
Last Quarter
Jul 8
New
Jul 15
First Quarter
Jul 22
Full

Hourly Weather History & Observations

Time (PDT) Temp. Heat Index Dew Point Humidity Pressure Visibility Wind Dir Wind Speed Gust Speed Precip Events Conditions
12:58 AM 71.4 °F - 56.7 °F 60% 29.98 in 10.0 mi NW 1.2 mph - N/A   Clear
1:58 AM 69.3 °F - 57.2 °F 65% 29.97 in 10.0 mi WNW 2.3 mph - N/A   Clear
2:58 AM 68.0 °F - 57.0 °F 68% 29.96 in 10.0 mi West 2.3 mph - N/A   Clear
3:58 AM 67.1 °F - 57.4 °F 71% 29.95 in 10.0 mi NNW 1.2 mph - N/A   Clear
4:58 AM 65.7 °F - 56.7 °F 73% 29.96 in 10.0 mi WNW 2.3 mph - N/A   Clear
5:58 AM 65.3 °F - 57.0 °F 75% 30.01 in 10.0 mi Calm Calm - N/A   Clear
6:58 AM 73.0 °F - 59.9 °F 63% 30.02 in 10.0 mi Calm Calm - N/A   Clear
7:58 AM 78.3 °F - 60.6 °F 54% 30.02 in 10.0 mi ENE 1.2 mph - N/A   Clear
8:58 AM 83.7 °F 83.3 °F 58.3 °F 42% 30.02 in 10.0 mi Calm Calm - N/A   Clear
9:58 AM 89.1 °F 88.0 °F 57.9 °F 35% 29.96 in 10.0 mi East 3.5 mph - N/A   Clear
10:58 AM 94.3 °F 93.4 °F 58.5 °F 30% 29.96 in 10.0 mi NW 5.8 mph - N/A   Partly Cloudy
11:59 AM 95.7 °F 95.9 °F 60.3 °F 31% 29.95 in 10.0 mi NW 11.5 mph - N/A   Clear
12:58 PM 97.9 °F 97.8 °F 59.9 °F 28% 29.93 in 10.0 mi NW 12.7 mph - N/A   Clear
1:38 PM 98.6 °F 99.4 °F 60.8 °F 29% 29.96 in 10.0 mi West 12.7 mph 19.6 mph N/A   Clear
1:58 PM 99.7 °F 101.2 °F 61.9 °F 29% 29.91 in 10.0 mi NW 11.5 mph - N/A   Clear
2:58 PM 99.5 °F 100.4 °F 60.6 °F 28% 29.89 in 10.0 mi NW 16.1 mph 19.6 mph N/A   Clear
3:58 PM 99.3 °F 100.1 °F 60.4 °F 28% 29.88 in 10.0 mi WNW 11.5 mph - N/A   Clear
4:58 PM 97.5 °F 96.9 °F 58.6 °F 27% 29.86 in 10.0 mi NW 16.1 mph - N/A   Clear
5:58 PM 95.2 °F 94.7 °F 58.8 °F 30% 29.88 in 10.0 mi WNW 15.0 mph - N/A   Clear
6:58 PM 92.1 °F 91.1 °F 57.9 °F 32% 29.88 in 10.0 mi WNW 13.8 mph - N/A   Clear
7:58 PM 87.4 °F 86.9 °F 59.9 °F 39% 29.87 in 10.0 mi NW 12.7 mph - N/A   Clear
8:58 PM 83.8 °F 83.6 °F 59.2 °F 43% 29.89 in 10.0 mi NNW 10.4 mph - N/A   Clear
9:58 PM 81.3 °F 81.8 °F 59.7 °F 48% 29.90 in 10.0 mi NW 8.1 mph - N/A   Clear
10:58 PM 78.3 °F - 60.1 °F 53% 29.90 in 10.0 mi West 3.5 mph - N/A   Clear
11:58 PM 74.8 °F - 59.4 °F 58% 29.90 in 10.0 mi NW 3.5 mph - N/A   Clear